AAL15 KJFK-KSFO

Flight info

Callsign AAL15
Flight time N/A
Altitude 30000
Route GAYEL Q818 WOZEE Q935 HOCKE GRB/N0459F320 GEP ABR J32 DPR/N0452F340 J32 LLC LEGGS BDEGA4
Aircraft A21N/M-SDE3FGHIRWY/LB1

Departure

Time N/A
Airport John F. Kennedy International Airport (KJFK)

Arrival

Time 2026-05-08 04:14
Airport San Francisco International Airport (KSFO)
Time Latitude Longitude Altitude Speed Heading
2026-05-07 22:35 41.61376 -74.83662 28327 ft 388 kts 291°
2026-05-07 22:36 41.62740 -74.86846 28572 ft 389 kts 291°
2026-05-07 22:36 41.64080 -74.89986 28768 ft 390 kts 291°
2026-05-07 22:36 41.65446 -74.93182 28979 ft 391 kts 291°
2026-05-07 22:36 41.66797 -74.96356 29201 ft 392 kts 291°
2026-05-07 22:37 41.68162 -74.99556 29423 ft 392 kts 291°
2026-05-07 22:37 41.69520 -75.02750 29632 ft 392 kts 291°
2026-05-07 22:37 41.70871 -75.05932 29832 ft 393 kts 291°
2026-05-07 22:38 41.73575 -75.12307 29872 ft 392 kts 291°
2026-05-07 22:38 41.76261 -75.18650 29874 ft 392 kts 291°
2026-05-07 22:39 41.78965 -75.25058 29873 ft 392 kts 291°
2026-05-07 22:39 41.81640 -75.31403 29879 ft 391 kts 291°
2026-05-07 22:40 41.84311 -75.37762 29866 ft 391 kts 291°
2026-05-07 22:40 41.87003 -75.44177 29870 ft 391 kts 291°
2026-05-07 22:41 41.89665 -75.50542 29875 ft 390 kts 291°
2026-05-07 22:41 41.92323 -75.56912 29877 ft 389 kts 291°
2026-05-07 22:42 41.94968 -75.63256 29872 ft 390 kts 291°
2026-05-07 22:42 41.97622 -75.69626 29874 ft 387 kts 290°
2026-05-07 22:43 42.00265 -75.75981 29883 ft 388 kts 290°
2026-05-07 22:43 42.02890 -75.82319 29885 ft 387 kts 290°
2026-05-07 22:44 42.05533 -75.88712 29890 ft 387 kts 290°
2026-05-07 22:44 42.08172 -75.95116 29891 ft 387 kts 290°
2026-05-07 22:45 42.10787 -76.01485 29897 ft 387 kts 290°
2026-05-07 22:45 42.13398 -76.07855 29892 ft 386 kts 290°
2026-05-07 22:46 42.15921 -76.14281 29908 ft 383 kts 287°
2026-05-07 22:46 42.18078 -76.20825 29903 ft 380 kts 286°
2026-05-07 22:47 42.20204 -76.27425 29904 ft 380 kts 285°
2026-05-07 22:47 42.20908 -76.29614 29902 ft 380 kts 285°
2026-05-07 22:48 42.24400 -76.40533 29906 ft 379 kts 285°
2026-05-07 22:48 42.26496 -76.47104 29899 ft 378 kts 285°
2026-05-07 22:49 42.28582 -76.53668 29901 ft 378 kts 285°
2026-05-07 22:49 42.30656 -76.60205 29903 ft 378 kts 285°
2026-05-07 22:50 42.32734 -76.66781 29899 ft 378 kts 285°
2026-05-07 22:50 42.34803 -76.73334 29898 ft 378 kts 285°
2026-05-07 22:51 42.36850 -76.79835 29893 ft 377 kts 285°
2026-05-07 22:51 42.38904 -76.86391 29884 ft 377 kts 285°
2026-05-07 22:52 42.40954 -76.92937 29883 ft 378 kts 285°
2026-05-07 22:52 42.43011 -76.99521 29886 ft 378 kts 285°
2026-05-07 22:53 42.45054 -77.06076 29884 ft 379 kts 285°
2026-05-07 22:53 42.47109 -77.12672 29890 ft 379 kts 285°
2026-05-07 22:54 42.49147 -77.19239 29895 ft 380 kts 285°
2026-05-07 22:54 42.51185 -77.25835 29895 ft 379 kts 285°
2026-05-07 22:55 42.53232 -77.32474 29903 ft 379 kts 285°
2026-05-07 22:55 42.55260 -77.39068 29896 ft 380 kts 285°
2026-05-07 22:56 42.57304 -77.45731 29887 ft 380 kts 285°
2026-05-07 22:56 42.59338 -77.52380 29885 ft 381 kts 285°
2026-05-07 22:57 42.61380 -77.59075 29900 ft 381 kts 285°
2026-05-07 22:57 42.63415 -77.65767 29900 ft 381 kts 284°
2026-05-07 22:58 42.65434 -77.72423 29907 ft 382 kts 285°
2026-05-07 22:58 42.67399 -77.79167 29905 ft 381 kts 284°
2026-05-07 22:59 42.69273 -77.85893 29889 ft 381 kts 284°
2026-05-07 22:59 42.71173 -77.92723 29878 ft 384 kts 284°
2026-05-07 23:00 42.73064 -77.99523 29892 ft 383 kts 284°
2026-05-07 23:00 42.74948 -78.06328 29895 ft 384 kts 284°
2026-05-07 23:01 42.76837 -78.13161 29891 ft 385 kts 284°
2026-05-07 23:02 42.80780 -78.27475 29872 ft 385 kts 284°
2026-05-07 23:02 42.82661 -78.34331 29881 ft 386 kts 284°
2026-05-07 23:03 42.84556 -78.41267 29888 ft 388 kts 284°
2026-05-07 23:03 42.86449 -78.48208 29897 ft 388 kts 284°
2026-05-07 23:04 42.88326 -78.55115 29903 ft 388 kts 285°
2026-05-07 23:04 42.90200 -78.62038 29908 ft 391 kts 285°
2026-05-07 23:05 42.92060 -78.69015 29908 ft 390 kts 283°
2026-05-07 23:05 42.93536 -78.76136 29914 ft 387 kts 278°
2026-05-07 23:06 42.94553 -78.83421 29920 ft 389 kts 276°
2026-05-07 23:06 42.95457 -78.90678 29913 ft 387 kts 276°
2026-05-07 23:07 42.96339 -78.97971 29913 ft 386 kts 275°
2026-05-07 23:07 42.96856 -79.05271 29916 ft 386 kts 271°
2026-05-07 23:08 42.97198 -79.12594 29915 ft 388 kts 271°
2026-05-07 23:08 42.97575 -79.19949 29915 ft 390 kts 271°
2026-05-07 23:09 42.97971 -79.27314 29913 ft 389 kts 271°
2026-05-07 23:09 42.98370 -79.34669 29912 ft 389 kts 271°
2026-05-07 23:10 42.98769 -79.42033 29910 ft 391 kts 272°
2026-05-07 23:10 42.99168 -79.49422 29914 ft 392 kts 272°
2026-05-07 23:11 42.99567 -79.56884 29910 ft 392 kts 272°
2026-05-07 23:11 42.99961 -79.64366 29911 ft 392 kts 272°
2026-05-07 23:12 43.00351 -79.71822 29917 ft 394 kts 271°
2026-05-07 23:12 43.00736 -79.79337 29902 ft 394 kts 272°
2026-05-07 23:13 43.01120 -79.86861 29912 ft 395 kts 271°
2026-05-07 23:13 43.01496 -79.94369 29910 ft 396 kts 272°
2026-05-07 23:14 43.01867 -80.01862 29916 ft 397 kts 272°
2026-05-07 23:14 43.02239 -80.09431 29910 ft 397 kts 272°
2026-05-07 23:15 43.02603 -80.16999 29910 ft 397 kts 272°
2026-05-07 23:15 43.02960 -80.24502 29913 ft 399 kts 272°
2026-05-07 23:16 43.03313 -80.32056 29912 ft 397 kts 272°
2026-05-07 23:16 43.03661 -80.39623 29924 ft 399 kts 272°
2026-05-07 23:17 43.04008 -80.47248 29922 ft 400 kts 272°
2026-05-07 23:17 43.04351 -80.54835 29915 ft 400 kts 272°
2026-05-07 23:18 43.04688 -80.62467 29917 ft 400 kts 272°
2026-05-07 23:18 43.05019 -80.70126 29918 ft 401 kts 272°
2026-05-07 23:19 43.05346 -80.77763 29920 ft 401 kts 272°
2026-05-07 23:19 43.05666 -80.85378 29924 ft 402 kts 272°
2026-05-07 23:20 43.05983 -80.93045 29931 ft 403 kts 272°
2026-05-07 23:20 43.06293 -81.00680 29930 ft 403 kts 272°
2026-05-07 23:21 43.06795 -81.08323 29930 ft 404 kts 277°
2026-05-07 23:21 43.07833 -81.15923 29944 ft 406 kts 282°
2026-05-07 23:22 43.09168 -81.23437 29947 ft 406 kts 282°
2026-05-07 23:22 43.10519 -81.31001 29937 ft 407 kts 282°
2026-05-07 23:23 43.11860 -81.38541 29923 ft 406 kts 282°
2026-05-07 23:23 43.13196 -81.46074 29940 ft 407 kts 282°
2026-05-07 23:24 43.14532 -81.53628 29922 ft 406 kts 282°
2026-05-07 23:24 43.15856 -81.61147 29933 ft 407 kts 282°
2026-05-07 23:25 43.17185 -81.68733 29922 ft 406 kts 282°
2026-05-07 23:25 43.18498 -81.76252 29924 ft 406 kts 282°
2026-05-07 23:26 43.19812 -81.83819 29913 ft 406 kts 282°
2026-05-07 23:26 43.21123 -81.91399 29907 ft 407 kts 282°
2026-05-07 23:27 43.23077 -82.02763 29930 ft 407 kts 282°
2026-05-07 23:27 43.24385 -82.10407 29928 ft 408 kts 282°
2026-05-07 23:28 43.25671 -82.17964 29923 ft 408 kts 282°
2026-05-07 23:28 43.26613 -82.25703 29941 ft 408 kts 276°
2026-05-07 23:29 43.26932 -82.33493 29918 ft 408 kts 271°
2026-05-07 23:29 43.26828 -82.41238 29933 ft 408 kts 270°
2026-05-07 23:30 43.26677 -82.49017 29941 ft 408 kts 270°
2026-05-07 23:30 43.26517 -82.56787 29932 ft 409 kts 270°
2026-05-07 23:31 43.26416 -82.64596 29925 ft 408 kts 273°
2026-05-07 23:31 43.27055 -82.72353 29940 ft 407 kts 281°
2026-05-07 23:32 43.28573 -82.79827 29927 ft 407 kts 288°
2026-05-07 23:32 43.30483 -82.87148 29918 ft 407 kts 289°
2026-05-07 23:33 43.32403 -82.94450 29917 ft 407 kts 289°
2026-05-07 23:33 43.34325 -83.01784 29938 ft 407 kts 289°
2026-05-07 23:34 43.36235 -83.09087 29927 ft 407 kts 289°
2026-05-07 23:34 43.38152 -83.16444 29929 ft 407 kts 289°
2026-05-07 23:35 43.40051 -83.23749 29918 ft 407 kts 289°
2026-05-07 23:35 43.41946 -83.31060 29929 ft 407 kts 289°
2026-05-07 23:36 43.43852 -83.38442 29933 ft 407 kts 289°
2026-05-07 23:36 43.45746 -83.45798 29946 ft 407 kts 289°
2026-05-07 23:37 43.47635 -83.53160 29920 ft 407 kts 289°
2026-05-07 23:37 43.49508 -83.60480 29934 ft 407 kts 289°
2026-05-07 23:38 43.51385 -83.67839 29943 ft 408 kts 289°
2026-05-07 23:38 43.53274 -83.75269 29933 ft 407 kts 289°
2026-05-07 23:39 43.55152 -83.82677 29940 ft 407 kts 289°
2026-05-07 23:39 43.57023 -83.90086 29933 ft 407 kts 289°
2026-05-07 23:40 43.58890 -83.97507 29934 ft 407 kts 289°
2026-05-07 23:40 43.60740 -84.04870 29937 ft 407 kts 289°
2026-05-07 23:41 43.62594 -84.12280 29946 ft 409 kts 289°
2026-05-07 23:41 43.64446 -84.19701 29928 ft 409 kts 289°
2026-05-07 23:42 43.66293 -84.27132 29925 ft 408 kts 289°
2026-05-07 23:42 43.68133 -84.34557 29926 ft 407 kts 289°
2026-05-07 23:43 43.69953 -84.41927 29929 ft 407 kts 289°
2026-05-07 23:43 43.71782 -84.49352 29922 ft 407 kts 289°
2026-05-07 23:44 43.73610 -84.56799 29913 ft 407 kts 289°
2026-05-07 23:44 43.75435 -84.64256 29928 ft 407 kts 289°
2026-05-07 23:45 43.77254 -84.71722 29937 ft 408 kts 289°
2026-05-07 23:45 43.79071 -84.79195 29922 ft 408 kts 289°
2026-05-07 23:46 43.80879 -84.86658 29917 ft 408 kts 289°
2026-05-07 23:46 43.82693 -84.94170 29914 ft 408 kts 289°
2026-05-07 23:47 43.84484 -85.01612 29903 ft 408 kts 289°
2026-05-07 23:47 43.86285 -85.09120 29913 ft 407 kts 289°
2026-05-07 23:48 43.88071 -85.16592 29912 ft 405 kts 289°
2026-05-07 23:48 43.89858 -85.24086 29915 ft 406 kts 289°
2026-05-07 23:49 43.91630 -85.31550 29912 ft 406 kts 289°
2026-05-07 23:49 43.93398 -85.39021 29919 ft 406 kts 289°
2026-05-07 23:50 43.95142 -85.46413 29913 ft 406 kts 289°
2026-05-07 23:50 43.96903 -85.53906 29916 ft 405 kts 289°
2026-05-07 23:51 43.98652 -85.61371 29907 ft 405 kts 289°
2026-05-07 23:51 44.00401 -85.68861 29909 ft 405 kts 288°
2026-05-07 23:52 44.02143 -85.76344 29909 ft 405 kts 288°
2026-05-07 23:52 44.03876 -85.83812 29914 ft 403 kts 288°
2026-05-07 23:53 44.05592 -85.91237 29912 ft 403 kts 288°
2026-05-07 23:53 44.07315 -85.98711 29914 ft 402 kts 288°
2026-05-07 23:54 44.09023 -86.06160 29920 ft 401 kts 288°
2026-05-07 23:54 44.10723 -86.13588 29927 ft 402 kts 288°
2026-05-07 23:55 44.12438 -86.21104 29923 ft 403 kts 288°
2026-05-07 23:55 44.14132 -86.28565 29934 ft 404 kts 288°
2026-05-07 23:56 44.14981 -86.32310 30089 ft 405 kts 288°
2026-05-07 23:56 44.15836 -86.36092 30381 ft 403 kts 288°
2026-05-07 23:56 44.16678 -86.39817 30652 ft 401 kts 288°
2026-05-07 23:56 44.17526 -86.43581 30830 ft 400 kts 288°
2026-05-07 23:57 44.18367 -86.47313 30970 ft 401 kts 288°
2026-05-07 23:57 44.19195 -86.51000 31125 ft 401 kts 288°
2026-05-07 23:57 44.20050 -86.54803 31270 ft 401 kts 288°
2026-05-07 23:57 44.20884 -86.58529 31410 ft 401 kts 288°
2026-05-07 23:58 44.21716 -86.62245 31556 ft 401 kts 288°
2026-05-07 23:58 44.22545 -86.65959 31691 ft 401 kts 287°
2026-05-07 23:58 44.23382 -86.69725 31833 ft 401 kts 287°
2026-05-07 23:58 44.24203 -86.73420 31903 ft 401 kts 287°
2026-05-07 23:59 44.25845 -86.80820 31920 ft 401 kts 287°
2026-05-07 23:59 44.27497 -86.88306 31918 ft 401 kts 287°
2026-05-08 00:00 44.29140 -86.95768 31916 ft 401 kts 288°
2026-05-08 00:00 44.30780 -87.03232 31910 ft 401 kts 287°
2026-05-08 00:01 44.32415 -87.10708 31903 ft 401 kts 287°
2026-05-08 00:01 44.34046 -87.18199 31899 ft 401 kts 288°
2026-05-08 00:02 44.35682 -87.25733 31893 ft 401 kts 288°
2026-05-08 00:02 44.37291 -87.33166 31900 ft 399 kts 287°
2026-05-08 00:03 44.38895 -87.40610 31908 ft 399 kts 288°
2026-05-08 00:03 44.40497 -87.48068 31902 ft 399 kts 287°
2026-05-08 00:04 44.42093 -87.55528 31903 ft 398 kts 288°
2026-05-08 00:04 44.43690 -87.63020 31899 ft 398 kts 288°
2026-05-08 00:05 44.45275 -87.70484 31889 ft 398 kts 287°
2026-05-08 00:05 44.46847 -87.77907 31886 ft 398 kts 287°
2026-05-08 00:06 44.48421 -87.85370 31890 ft 398 kts 287°
2026-05-08 00:06 44.49984 -87.92805 31886 ft 398 kts 287°
2026-05-08 00:07 44.51547 -88.00286 31886 ft 398 kts 288°
2026-05-08 00:07 44.53108 -88.07781 31899 ft 398 kts 288°
2026-05-08 00:08 44.54664 -88.15273 31892 ft 399 kts 288°
2026-05-08 00:08 44.55986 -88.22833 31898 ft 399 kts 283°
2026-05-08 00:09 44.57059 -88.30549 31893 ft 399 kts 283°
2026-05-08 00:09 44.58104 -88.38161 31891 ft 399 kts 283°
2026-05-08 00:10 44.59150 -88.45835 31894 ft 398 kts 283°
2026-05-08 00:10 44.60183 -88.53480 31895 ft 399 kts 283°
2026-05-08 00:11 44.61218 -88.61186 31901 ft 399 kts 283°
2026-05-08 00:11 44.62241 -88.68833 31901 ft 399 kts 283°
2026-05-08 00:12 44.63258 -88.76481 31903 ft 400 kts 283°
2026-05-08 00:12 44.64282 -88.84206 31901 ft 399 kts 283°
2026-05-08 00:13 44.65282 -88.91814 31894 ft 398 kts 283°
2026-05-08 00:13 44.66284 -88.99485 31889 ft 398 kts 283°
2026-05-08 00:14 44.67276 -89.07105 31880 ft 398 kts 283°
2026-05-08 00:14 44.68266 -89.14740 31876 ft 398 kts 283°
2026-05-08 00:15 44.69247 -89.22361 31878 ft 398 kts 283°
2026-05-08 00:15 44.70226 -89.30020 31889 ft 397 kts 283°
2026-05-08 00:16 44.71196 -89.37635 31896 ft 397 kts 283°
2026-05-08 00:16 44.72159 -89.45232 31900 ft 397 kts 283°
2026-05-08 00:17 44.73114 -89.52818 31907 ft 397 kts 283°
2026-05-08 00:17 44.74075 -89.60494 31904 ft 397 kts 283°
2026-05-08 00:18 44.75021 -89.68099 31901 ft 397 kts 283°
2026-05-08 00:18 44.75967 -89.75754 31908 ft 397 kts 283°
2026-05-08 00:19 44.76904 -89.83361 31904 ft 397 kts 283°
2026-05-08 00:19 44.77842 -89.91007 31902 ft 396 kts 283°
2026-05-08 00:20 44.78764 -89.98593 31900 ft 396 kts 283°
2026-05-08 00:20 44.79688 -90.06240 31904 ft 396 kts 283°
2026-05-08 00:21 44.80614 -90.13943 31897 ft 396 kts 283°
2026-05-08 00:21 44.81529 -90.21587 31905 ft 395 kts 283°
2026-05-08 00:22 44.82438 -90.29243 31902 ft 395 kts 283°
2026-05-08 00:22 44.83335 -90.36845 31898 ft 394 kts 283°
2026-05-08 00:23 44.84233 -90.44489 31903 ft 394 kts 284°
2026-05-08 00:23 44.85122 -90.52110 31909 ft 393 kts 284°
2026-05-08 00:24 44.86004 -90.59708 31913 ft 394 kts 284°
2026-05-08 00:24 44.86886 -90.67344 31910 ft 393 kts 283°
2026-05-08 00:25 44.87765 -90.75015 31914 ft 394 kts 283°
2026-05-08 00:25 44.88638 -90.82686 31910 ft 392 kts 283°
2026-05-08 00:26 44.89510 -90.90386 31899 ft 392 kts 283°
2026-05-08 00:26 44.90370 -90.98006 31905 ft 393 kts 283°
2026-05-08 00:27 44.91222 -91.05633 31899 ft 392 kts 283°
2026-05-08 00:27 44.92063 -91.13222 31908 ft 391 kts 283°
2026-05-08 00:28 44.92900 -91.20812 31902 ft 390 kts 283°
2026-05-08 00:28 44.93736 -91.28422 31902 ft 390 kts 284°
2026-05-08 00:29 44.94558 -91.35960 31907 ft 388 kts 283°
2026-05-08 00:29 44.95374 -91.43486 31906 ft 386 kts 283°
2026-05-08 00:30 44.96193 -91.51088 31899 ft 386 kts 284°
2026-05-08 00:30 44.96997 -91.58601 31896 ft 385 kts 284°
2026-05-08 00:31 44.97793 -91.66126 31901 ft 384 kts 283°
2026-05-08 00:31 44.98586 -91.73646 31902 ft 384 kts 284°
2026-05-08 00:32 44.99381 -91.81200 31903 ft 382 kts 284°
2026-05-08 00:32 45.00157 -91.88652 31914 ft 382 kts 284°
2026-05-08 00:33 45.00937 -91.96187 31903 ft 382 kts 284°
2026-05-08 00:33 45.01706 -92.03666 31895 ft 381 kts 283°
2026-05-08 00:34 45.02467 -92.11111 31891 ft 380 kts 284°
2026-05-08 00:34 45.03224 -92.18561 31895 ft 382 kts 283°
2026-05-08 00:35 45.03976 -92.26012 31894 ft 382 kts 283°
2026-05-08 00:35 45.04723 -92.33469 31895 ft 382 kts 283°
2026-05-08 00:36 45.05467 -92.40957 31896 ft 383 kts 284°
2026-05-08 00:36 45.06205 -92.48426 31897 ft 384 kts 284°
2026-05-08 00:37 45.06943 -92.55945 31900 ft 384 kts 284°
2026-05-08 00:38 45.08040 -92.67240 31899 ft 386 kts 283°
2026-05-08 00:38 45.08766 -92.74779 31896 ft 385 kts 283°
2026-05-08 00:39 45.09499 -92.82426 31895 ft 386 kts 283°
2026-05-08 00:39 45.10218 -92.90007 31897 ft 385 kts 283°
2026-05-08 00:40 45.10924 -92.97508 31893 ft 385 kts 283°
2026-05-08 00:40 45.11633 -93.05081 31889 ft 385 kts 283°
2026-05-08 00:41 45.12330 -93.12600 31888 ft 387 kts 283°
2026-05-08 00:41 45.13023 -93.20126 31886 ft 387 kts 283°
2026-05-08 00:42 45.13718 -93.27748 31884 ft 388 kts 283°
2026-05-08 00:42 45.14407 -93.35347 31887 ft 389 kts 282°
2026-05-08 00:43 45.15039 -93.42989 31881 ft 391 kts 281°
2026-05-08 00:43 45.15620 -93.50680 31881 ft 391 kts 281°
2026-05-08 00:44 45.16192 -93.58352 31885 ft 392 kts 281°
2026-05-08 00:44 45.16760 -93.66026 31882 ft 392 kts 281°
2026-05-08 00:45 45.17326 -93.73719 31884 ft 393 kts 281°
2026-05-08 00:45 45.17891 -93.81478 31885 ft 394 kts 281°
2026-05-08 00:46 45.18450 -93.89202 31885 ft 394 kts 281°
2026-05-08 00:46 45.19006 -93.96985 31886 ft 395 kts 281°
2026-05-08 00:47 45.19561 -94.04790 31889 ft 396 kts 281°
2026-05-08 00:47 45.20105 -94.12566 31891 ft 396 kts 281°
2026-05-08 00:48 45.20641 -94.20296 31885 ft 396 kts 281°
2026-05-08 00:48 45.21178 -94.28096 31889 ft 396 kts 280°
2026-05-08 00:49 45.21709 -94.35902 31889 ft 397 kts 280°
2026-05-08 00:49 45.22236 -94.43729 31889 ft 397 kts 280°
2026-05-08 00:50 45.22759 -94.51557 31889 ft 397 kts 280°
2026-05-08 00:50 45.23274 -94.59382 31889 ft 397 kts 280°
2026-05-08 00:51 45.23790 -94.67252 31892 ft 397 kts 279°
2026-05-08 00:51 45.24290 -94.74993 31890 ft 399 kts 279°
2026-05-08 00:52 45.24793 -94.82861 31887 ft 399 kts 279°
2026-05-08 00:52 45.25292 -94.90758 31880 ft 400 kts 279°
2026-05-08 00:53 45.25783 -94.98617 31876 ft 400 kts 279°
2026-05-08 00:53 45.26273 -95.06527 31870 ft 400 kts 279°
2026-05-08 00:54 45.26754 -95.14413 31875 ft 400 kts 279°
2026-05-08 00:54 45.27231 -95.22298 31876 ft 401 kts 279°
2026-05-08 00:55 45.27702 -95.30190 31874 ft 402 kts 279°
2026-05-08 00:55 45.28172 -95.38142 31872 ft 402 kts 279°
2026-05-08 00:56 45.28632 -95.46038 31877 ft 402 kts 279°
2026-05-08 00:56 45.29088 -95.53956 31881 ft 402 kts 279°
2026-05-08 00:57 45.29539 -95.61889 31882 ft 402 kts 279°
2026-05-08 00:57 45.29987 -95.69837 31884 ft 403 kts 278°
2026-05-08 00:58 45.30428 -95.77777 31881 ft 404 kts 278°
2026-05-08 00:58 45.30861 -95.85671 31886 ft 404 kts 278°
2026-05-08 00:59 45.31290 -95.93599 31885 ft 404 kts 278°
2026-05-08 00:59 45.31718 -96.01611 31884 ft 405 kts 278°
2026-05-08 01:00 45.32138 -96.09592 31886 ft 406 kts 278°
2026-05-08 01:00 45.32555 -96.17596 31882 ft 406 kts 278°
2026-05-08 01:01 45.32967 -96.25635 31888 ft 406 kts 278°
2026-05-08 01:01 45.33370 -96.33590 31887 ft 406 kts 278°
2026-05-08 01:02 45.33772 -96.41649 31888 ft 406 kts 278°
2026-05-08 01:02 45.34167 -96.49706 31884 ft 406 kts 278°
2026-05-08 01:03 45.34557 -96.57755 31885 ft 406 kts 278°
2026-05-08 01:03 45.34942 -96.65811 31878 ft 407 kts 277°
2026-05-08 01:04 45.35322 -96.73895 31878 ft 407 kts 277°
2026-05-08 01:04 45.35697 -96.81975 31875 ft 408 kts 277°
2026-05-08 01:05 45.36068 -96.90086 31873 ft 408 kts 277°
2026-05-08 01:05 45.36427 -96.98117 31876 ft 408 kts 277°
2026-05-08 01:06 45.36784 -97.06183 31869 ft 409 kts 277°
2026-05-08 01:06 45.37136 -97.14271 31868 ft 409 kts 277°
2026-05-08 01:07 45.37483 -97.22398 31871 ft 410 kts 277°
2026-05-08 01:07 45.37823 -97.30486 31875 ft 410 kts 276°
2026-05-08 01:08 45.38158 -97.38600 31872 ft 411 kts 277°
2026-05-08 01:08 45.38490 -97.46772 31877 ft 410 kts 276°
2026-05-08 01:09 45.38812 -97.54849 31879 ft 410 kts 276°
2026-05-08 01:09 45.39131 -97.62974 31878 ft 410 kts 276°
2026-05-08 01:10 45.39443 -97.71124 31876 ft 411 kts 276°
2026-05-08 01:10 45.39755 -97.79363 31875 ft 411 kts 276°
2026-05-08 01:11 45.40055 -97.87483 31874 ft 411 kts 276°
2026-05-08 01:11 45.40350 -97.95628 31875 ft 412 kts 276°
2026-05-08 01:12 45.40640 -98.03784 31874 ft 412 kts 276°
2026-05-08 01:12 45.40922 -98.11963 31878 ft 412 kts 276°
2026-05-08 01:13 45.41201 -98.20168 31884 ft 413 kts 276°
2026-05-08 01:13 45.41472 -98.28319 31881 ft 412 kts 275°
2026-05-08 01:14 45.41547 -98.36510 31879 ft 414 kts 271°
2026-05-08 01:14 45.41064 -98.44691 31880 ft 416 kts 266°
2026-05-08 01:15 45.40351 -98.52933 31877 ft 416 kts 266°
2026-05-08 01:15 45.39633 -98.61107 31874 ft 416 kts 266°
2026-05-08 01:16 45.38907 -98.69305 31877 ft 417 kts 266°
2026-05-08 01:16 45.38174 -98.77502 31874 ft 417 kts 266°
2026-05-08 01:17 45.37436 -98.85694 31870 ft 417 kts 266°
2026-05-08 01:17 45.36690 -98.93896 32071 ft 419 kts 266°
2026-05-08 01:17 45.36309 -98.98054 32383 ft 417 kts 266°
2026-05-08 01:18 45.35936 -99.02110 32655 ft 415 kts 266°
2026-05-08 01:18 45.35558 -99.06207 32876 ft 415 kts 266°
2026-05-08 01:18 45.35183 -99.10257 33071 ft 415 kts 266°
2026-05-08 01:18 45.34801 -99.14362 33270 ft 414 kts 266°
2026-05-08 01:19 45.34425 -99.18410 33475 ft 414 kts 266°
2026-05-08 01:19 45.34041 -99.22495 33678 ft 413 kts 265°
2026-05-08 01:19 45.33660 -99.26543 33852 ft 413 kts 266°
2026-05-08 01:20 45.32898 -99.34586 33866 ft 412 kts 266°
2026-05-08 01:20 45.32121 -99.42732 33869 ft 412 kts 266°
2026-05-08 01:21 45.31348 -99.50777 33870 ft 411 kts 266°
2026-05-08 01:21 45.30567 -99.58849 33871 ft 411 kts 266°
2026-05-08 01:22 45.29782 -99.66904 33875 ft 411 kts 265°
2026-05-08 01:22 45.28980 -99.75062 33873 ft 412 kts 265°
2026-05-08 01:23 45.28180 -99.83147 33875 ft 413 kts 265°
2026-05-08 01:23 45.27369 -99.91273 33876 ft 413 kts 265°
2026-05-08 01:24 45.26549 -99.99429 33877 ft 413 kts 265°
2026-05-08 01:24 45.25734 -100.07481 33877 ft 413 kts 265°
2026-05-08 01:25 45.24908 -100.15578 33876 ft 413 kts 265°
2026-05-08 01:25 45.24081 -100.23624 33874 ft 412 kts 265°
2026-05-08 01:26 45.23243 -100.31730 33870 ft 412 kts 265°
2026-05-08 01:26 45.22400 -100.39817 33871 ft 412 kts 265°
2026-05-08 01:27 45.21553 -100.47881 33869 ft 411 kts 265°
2026-05-08 01:27 45.20707 -100.55907 33869 ft 412 kts 265°
2026-05-08 01:28 45.19854 -100.63925 33869 ft 411 kts 265°
2026-05-08 01:28 45.18991 -100.71968 33866 ft 412 kts 265°
2026-05-08 01:29 45.18119 -100.80049 33868 ft 412 kts 265°
2026-05-08 01:29 45.17247 -100.88091 33869 ft 412 kts 265°
2026-05-08 01:30 45.16361 -100.96176 33872 ft 411 kts 265°
2026-05-08 01:30 45.15463 -101.04334 33879 ft 412 kts 265°
2026-05-08 01:31 45.14571 -101.12399 33880 ft 412 kts 265°
2026-05-08 01:31 45.13670 -101.20476 33879 ft 412 kts 265°
2026-05-08 01:32 45.12766 -101.28522 33884 ft 412 kts 265°
2026-05-08 01:32 45.11856 -101.36554 33890 ft 412 kts 265°
2026-05-08 01:33 45.10943 -101.44563 33888 ft 413 kts 265°
2026-05-08 01:33 45.10024 -101.52571 33886 ft 413 kts 265°
2026-05-08 01:34 45.09094 -101.60626 33892 ft 413 kts 265°
2026-05-08 01:34 45.08142 -101.68665 33896 ft 413 kts 263°
2026-05-08 01:35 45.06809 -101.76475 33895 ft 416 kts 258°
2026-05-08 01:35 45.05196 -101.84387 33897 ft 416 kts 258°
2026-05-08 01:36 45.03567 -101.92326 33893 ft 417 kts 258°
2026-05-08 01:36 45.01935 -102.00235 33880 ft 417 kts 258°
2026-05-08 01:37 45.00306 -102.08099 33876 ft 417 kts 259°
2026-05-08 01:37 44.98648 -102.16067 33876 ft 417 kts 259°
2026-05-08 01:38 44.96994 -102.23990 33879 ft 417 kts 259°
2026-05-08 01:38 44.95339 -102.31879 33879 ft 417 kts 259°
2026-05-08 01:39 44.93674 -102.39796 33885 ft 418 kts 259°
2026-05-08 01:39 44.92003 -102.47710 33892 ft 418 kts 259°
2026-05-08 01:40 44.90323 -102.55630 33894 ft 417 kts 259°
2026-05-08 01:40 44.88640 -102.63531 33891 ft 417 kts 259°
2026-05-08 01:41 44.86950 -102.71437 33893 ft 418 kts 258°
2026-05-08 01:41 44.85245 -102.79382 33890 ft 417 kts 258°
2026-05-08 01:42 44.83551 -102.87251 33892 ft 417 kts 258°
2026-05-08 01:42 44.81849 -102.95123 33889 ft 417 kts 258°
2026-05-08 01:43 44.80147 -103.02971 33893 ft 417 kts 258°
2026-05-08 01:43 44.78440 -103.10808 33898 ft 417 kts 258°
2026-05-08 01:44 44.76736 -103.18607 33900 ft 418 kts 258°
2026-05-08 01:44 44.75008 -103.26491 33911 ft 419 kts 258°
2026-05-08 01:45 44.73272 -103.34368 33917 ft 419 kts 258°
2026-05-08 01:45 44.71542 -103.42195 33911 ft 419 kts 258°
2026-05-08 01:46 44.69803 -103.50034 33922 ft 419 kts 258°
2026-05-08 01:46 44.68053 -103.57890 33926 ft 419 kts 258°
2026-05-08 01:47 44.66317 -103.65650 33928 ft 419 kts 257°
2026-05-08 01:47 44.64565 -103.73463 33944 ft 419 kts 257°
2026-05-08 01:48 44.61908 -103.85260 33943 ft 419 kts 257°
2026-05-08 01:48 44.60144 -103.93050 33948 ft 419 kts 257°
2026-05-08 01:49 44.58381 -104.00808 33952 ft 419 kts 257°
2026-05-08 01:49 44.56587 -104.08675 33951 ft 419 kts 257°
2026-05-08 01:50 44.54808 -104.16448 33957 ft 420 kts 257°
2026-05-08 01:50 44.53018 -104.24242 33959 ft 420 kts 257°
2026-05-08 01:51 44.51217 -104.32054 33976 ft 420 kts 257°
2026-05-08 01:51 44.49423 -104.39816 33980 ft 421 kts 257°
2026-05-08 01:52 44.47620 -104.47578 33981 ft 420 kts 257°
2026-05-08 01:52 44.45797 -104.55404 33984 ft 420 kts 257°
2026-05-08 01:53 44.43970 -104.63219 33981 ft 420 kts 257°
2026-05-08 01:53 44.42131 -104.71056 33980 ft 421 kts 256°
2026-05-08 01:54 44.40305 -104.78818 33963 ft 420 kts 256°
2026-05-08 01:54 44.38470 -104.86577 33966 ft 420 kts 256°
2026-05-08 01:55 44.36633 -104.94327 33967 ft 419 kts 256°
2026-05-08 01:55 44.34784 -105.02103 33968 ft 419 kts 256°
2026-05-08 01:56 44.32927 -105.09875 33965 ft 420 kts 256°
2026-05-08 01:56 44.31062 -105.17658 33956 ft 420 kts 256°
2026-05-08 01:57 44.29201 -105.25401 33969 ft 421 kts 256°
2026-05-08 01:57 44.27330 -105.33155 33968 ft 421 kts 256°
2026-05-08 01:58 44.25425 -105.41020 33985 ft 422 kts 257°
2026-05-08 01:58 44.23536 -105.48804 33982 ft 422 kts 257°
2026-05-08 01:59 44.21665 -105.56478 33992 ft 422 kts 257°
2026-05-08 01:59 44.19770 -105.64225 33988 ft 422 kts 257°
2026-05-08 02:00 44.17837 -105.72100 33979 ft 423 kts 256°
2026-05-08 02:00 44.15895 -105.79986 33991 ft 423 kts 256°
2026-05-08 02:01 44.13963 -105.87804 33990 ft 423 kts 256°
2026-05-08 02:01 44.12036 -105.95575 34002 ft 424 kts 256°
2026-05-08 02:02 44.10103 -106.03342 34003 ft 423 kts 257°
2026-05-08 02:02 44.08149 -106.11166 33995 ft 425 kts 256°
2026-05-08 02:03 44.06195 -106.18965 34004 ft 424 kts 256°
2026-05-08 02:03 44.04236 -106.26750 34032 ft 425 kts 257°
2026-05-08 02:04 44.02266 -106.34557 34019 ft 426 kts 257°
2026-05-08 02:04 44.00303 -106.42302 34037 ft 427 kts 257°
2026-05-08 02:05 43.98210 -106.50097 34060 ft 427 kts 255°
2026-05-08 02:05 43.96060 -106.57767 34061 ft 427 kts 256°
2026-05-08 02:06 43.93886 -106.65518 34073 ft 427 kts 255°
2026-05-08 02:06 43.91710 -106.73270 34073 ft 427 kts 256°
2026-05-08 02:07 43.89531 -106.81031 34081 ft 428 kts 256°
2026-05-08 02:07 43.87344 -106.88779 34092 ft 430 kts 256°
2026-05-08 02:08 43.85133 -106.96597 34098 ft 430 kts 256°
2026-05-08 02:08 43.82945 -107.04308 34096 ft 430 kts 256°
2026-05-08 02:09 43.80738 -107.12075 34079 ft 430 kts 256°
2026-05-08 02:09 43.78529 -107.19810 34073 ft 430 kts 256°
2026-05-08 02:10 43.76331 -107.27492 34081 ft 430 kts 256°
2026-05-08 02:10 43.74118 -107.35189 34071 ft 429 kts 256°
2026-05-08 02:11 43.71903 -107.42877 34070 ft 430 kts 256°
2026-05-08 02:11 43.69682 -107.50557 34061 ft 430 kts 257°
2026-05-08 02:12 43.67453 -107.58244 34058 ft 429 kts 257°
2026-05-08 02:12 43.65229 -107.65891 34041 ft 428 kts 256°
2026-05-08 02:13 43.62976 -107.73613 34041 ft 430 kts 256°
2026-05-08 02:13 43.60713 -107.81358 34036 ft 431 kts 256°
2026-05-08 02:14 43.58441 -107.89092 34033 ft 431 kts 256°
2026-05-08 02:14 43.56175 -107.96795 34028 ft 432 kts 256°
2026-05-08 02:15 43.53895 -108.04514 34031 ft 433 kts 256°
2026-05-08 02:15 43.51602 -108.12245 34035 ft 432 kts 257°
2026-05-08 02:16 43.49295 -108.20007 34037 ft 431 kts 257°
2026-05-08 02:16 43.47019 -108.27629 34040 ft 432 kts 257°
2026-05-08 02:17 43.44791 -108.35345 34047 ft 430 kts 258°
2026-05-08 02:17 43.42639 -108.43062 34064 ft 430 kts 258°
2026-05-08 02:18 43.40496 -108.50696 34060 ft 430 kts 258°
2026-05-08 02:18 43.38302 -108.58469 34068 ft 430 kts 258°
2026-05-08 02:19 43.36122 -108.66153 34075 ft 431 kts 258°
2026-05-08 02:19 43.33912 -108.73920 34075 ft 431 kts 258°
2026-05-08 02:20 43.31697 -108.81665 34086 ft 432 kts 258°
2026-05-08 02:20 43.29469 -108.89444 34088 ft 432 kts 258°
2026-05-08 02:21 43.27236 -108.97210 34094 ft 433 kts 258°
2026-05-08 02:21 43.25007 -109.04939 34099 ft 431 kts 258°
2026-05-08 02:22 43.22778 -109.12646 34106 ft 431 kts 258°
2026-05-08 02:22 43.20566 -109.20277 34113 ft 432 kts 258°
2026-05-08 02:23 43.18329 -109.27967 34134 ft 435 kts 258°
2026-05-08 02:23 43.16094 -109.35624 34150 ft 434 kts 258°
2026-05-08 02:24 43.13820 -109.43398 34163 ft 434 kts 258°
2026-05-08 02:24 43.11539 -109.51163 34175 ft 436 kts 258°
2026-05-08 02:25 43.09253 -109.58918 34181 ft 436 kts 258°
2026-05-08 02:25 43.06937 -109.66766 34183 ft 436 kts 257°
2026-05-08 02:26 43.04619 -109.74590 34185 ft 439 kts 257°
2026-05-08 02:26 43.02303 -109.82380 34178 ft 437 kts 257°
2026-05-08 02:27 42.99979 -109.90172 34169 ft 436 kts 257°
2026-05-08 02:27 42.97680 -109.97861 34164 ft 438 kts 257°
2026-05-08 02:28 42.95347 -110.05650 34159 ft 438 kts 257°
2026-05-08 02:28 42.93014 -110.13396 34164 ft 438 kts 257°
2026-05-08 02:29 42.90687 -110.21104 34163 ft 439 kts 257°
2026-05-08 02:29 42.88356 -110.28801 34159 ft 438 kts 257°
2026-05-08 02:30 42.86008 -110.36539 34164 ft 439 kts 257°
2026-05-08 02:30 42.83642 -110.44308 34173 ft 438 kts 257°
2026-05-08 02:31 42.81283 -110.52027 34180 ft 437 kts 257°
2026-05-08 02:31 42.78922 -110.59741 34175 ft 437 kts 257°
2026-05-08 02:32 42.76559 -110.67436 34174 ft 439 kts 256°
2026-05-08 02:32 42.74168 -110.75191 34167 ft 439 kts 257°
2026-05-08 02:33 42.71780 -110.82927 34151 ft 440 kts 256°
2026-05-08 02:33 42.69397 -110.90613 34125 ft 439 kts 256°
2026-05-08 02:34 42.66982 -110.98381 34109 ft 440 kts 256°
2026-05-08 02:34 42.64558 -111.06152 34112 ft 439 kts 256°
2026-05-08 02:35 42.62130 -111.13925 34131 ft 440 kts 256°
2026-05-08 02:35 42.59722 -111.21603 34158 ft 439 kts 256°
2026-05-08 02:36 42.57299 -111.29301 34176 ft 439 kts 256°
2026-05-08 02:36 42.54859 -111.37038 34175 ft 440 kts 256°
2026-05-08 02:37 42.52413 -111.44770 34164 ft 439 kts 256°
2026-05-08 02:37 42.49990 -111.52409 34155 ft 441 kts 256°
2026-05-08 02:38 42.47564 -111.60033 34139 ft 441 kts 256°
2026-05-08 02:38 42.45088 -111.67798 34135 ft 440 kts 255°
2026-05-08 02:39 42.42642 -111.75440 34122 ft 443 kts 255°
2026-05-08 02:39 42.40178 -111.83114 34120 ft 443 kts 255°
2026-05-08 02:40 42.37711 -111.90775 34119 ft 442 kts 255°
2026-05-08 02:40 42.35232 -111.98457 34120 ft 443 kts 255°
2026-05-08 02:41 42.32765 -112.06075 34128 ft 442 kts 255°
2026-05-08 02:41 42.30283 -112.13718 34108 ft 441 kts 255°
2026-05-08 02:42 42.27812 -112.21302 34102 ft 441 kts 255°
2026-05-08 02:42 42.25298 -112.28999 34107 ft 440 kts 255°
2026-05-08 02:43 42.22804 -112.36608 34116 ft 440 kts 255°
2026-05-08 02:43 42.20289 -112.44263 34119 ft 440 kts 255°
2026-05-08 02:44 42.17770 -112.51807 34132 ft 440 kts 254°
2026-05-08 02:44 42.15208 -112.59386 34134 ft 439 kts 254°
2026-05-08 02:45 42.12668 -112.66885 34128 ft 441 kts 253°
2026-05-08 02:45 42.10149 -112.74300 34125 ft 441 kts 253°
2026-05-08 02:46 42.07593 -112.81805 34116 ft 442 kts 253°
2026-05-08 02:46 42.05009 -112.89368 34122 ft 442 kts 253°
2026-05-08 02:47 42.02428 -112.96907 34120 ft 442 kts 252°
2026-05-08 02:47 41.99833 -113.04459 34116 ft 442 kts 252°
2026-05-08 02:48 41.97248 -113.11964 34128 ft 442 kts 253°
2026-05-08 02:48 41.94638 -113.19518 34133 ft 441 kts 253°
2026-05-08 02:49 41.92025 -113.27062 34135 ft 442 kts 253°
2026-05-08 02:49 41.89413 -113.34578 34131 ft 442 kts 253°
2026-05-08 02:50 41.86780 -113.42136 34129 ft 442 kts 252°
2026-05-08 02:50 41.84135 -113.49720 34133 ft 442 kts 253°
2026-05-08 02:51 41.81496 -113.57278 34146 ft 444 kts 252°
2026-05-08 02:51 41.78846 -113.64841 34155 ft 443 kts 252°
2026-05-08 02:52 41.76206 -113.72343 34168 ft 445 kts 252°
2026-05-08 02:52 41.73554 -113.79864 34185 ft 445 kts 252°
2026-05-08 02:53 41.70911 -113.87334 34182 ft 444 kts 251°
2026-05-08 02:53 41.68249 -113.94840 34180 ft 444 kts 252°
2026-05-08 02:54 41.65582 -114.02337 34177 ft 445 kts 251°
2026-05-08 02:54 41.62916 -114.09815 34181 ft 446 kts 251°
2026-05-08 02:55 41.58908 -114.21014 34176 ft 446 kts 251°
2026-05-08 02:56 41.56229 -114.28476 34173 ft 445 kts 251°
2026-05-08 02:56 41.53538 -114.35953 34179 ft 446 kts 251°
2026-05-08 02:57 41.50809 -114.43514 34185 ft 445 kts 251°
2026-05-08 02:57 41.48119 -114.50950 34195 ft 445 kts 251°
2026-05-08 02:58 41.45407 -114.58423 34198 ft 445 kts 251°
2026-05-08 02:58 41.42681 -114.65917 34202 ft 446 kts 250°
2026-05-08 02:59 41.39936 -114.73445 34210 ft 447 kts 250°
2026-05-08 02:59 41.37199 -114.80927 34219 ft 448 kts 250°
2026-05-08 03:00 41.34457 -114.88410 34218 ft 448 kts 250°
2026-05-08 03:00 41.31682 -114.95956 34228 ft 448 kts 250°
2026-05-08 03:01 41.28921 -115.03444 34229 ft 448 kts 250°
2026-05-08 03:01 41.26162 -115.10908 34228 ft 448 kts 250°
2026-05-08 03:02 41.23389 -115.18397 34226 ft 449 kts 250°
2026-05-08 03:02 41.20609 -115.25886 34219 ft 449 kts 249°
2026-05-08 03:03 41.17820 -115.33372 34224 ft 448 kts 249°
2026-05-08 03:03 41.15036 -115.40829 34237 ft 448 kts 249°
2026-05-08 03:04 41.12242 -115.48289 34243 ft 448 kts 249°
2026-05-08 03:04 41.09431 -115.55781 34248 ft 449 kts 249°
2026-05-08 03:05 41.06620 -115.63253 34254 ft 449 kts 249°
2026-05-08 03:05 41.03770 -115.70808 34264 ft 449 kts 248°
2026-05-08 03:06 41.00951 -115.78260 34269 ft 449 kts 248°
2026-05-08 03:06 40.98111 -115.85751 34251 ft 450 kts 248°
2026-05-08 03:07 40.95295 -115.93155 34239 ft 450 kts 248°
2026-05-08 03:07 40.92433 -116.00661 34233 ft 452 kts 248°
2026-05-08 03:08 40.89595 -116.08093 34236 ft 451 kts 248°
2026-05-08 03:08 40.86730 -116.15571 34247 ft 450 kts 248°
2026-05-08 03:09 40.83889 -116.22968 34252 ft 450 kts 248°
2026-05-08 03:09 40.81021 -116.30416 34243 ft 449 kts 248°
2026-05-08 03:10 40.78185 -116.37762 34236 ft 450 kts 248°
2026-05-08 03:10 40.75304 -116.45205 34214 ft 451 kts 248°
2026-05-08 03:11 40.72424 -116.52631 34200 ft 451 kts 248°
2026-05-08 03:11 40.69538 -116.60046 34196 ft 451 kts 248°
2026-05-08 03:12 40.66650 -116.67449 34208 ft 450 kts 247°
2026-05-08 03:12 40.63746 -116.74867 34199 ft 450 kts 247°
2026-05-08 03:13 40.60870 -116.82197 34184 ft 450 kts 247°
2026-05-08 03:13 40.58030 -116.89526 34165 ft 450 kts 249°
2026-05-08 03:14 40.55657 -116.97140 34157 ft 447 kts 255°
2026-05-08 03:14 40.53647 -117.04869 34159 ft 447 kts 255°
2026-05-08 03:15 40.51613 -117.12682 34177 ft 447 kts 255°
2026-05-08 03:15 40.49601 -117.20372 34187 ft 447 kts 255°
2026-05-08 03:16 40.47559 -117.28155 34193 ft 447 kts 255°
2026-05-08 03:16 40.45521 -117.35890 34211 ft 447 kts 255°
2026-05-08 03:17 40.43462 -117.43684 34233 ft 447 kts 255°
2026-05-08 03:17 40.41388 -117.51505 34238 ft 447 kts 254°
2026-05-08 03:18 40.39321 -117.59277 34241 ft 448 kts 254°
2026-05-08 03:18 40.37247 -117.67048 34234 ft 448 kts 254°
2026-05-08 03:19 40.35180 -117.74772 34232 ft 448 kts 253°
2026-05-08 03:19 40.33088 -117.82559 34220 ft 447 kts 253°
2026-05-08 03:20 40.31006 -117.90294 34197 ft 447 kts 253°
2026-05-08 03:20 40.28914 -117.98038 34172 ft 448 kts 253°
2026-05-08 03:21 40.26799 -118.05846 34162 ft 448 kts 253°
2026-05-08 03:21 40.24695 -118.13582 34180 ft 448 kts 253°
2026-05-08 03:22 40.22594 -118.21282 34200 ft 448 kts 253°
2026-05-08 03:22 40.20486 -118.28983 34210 ft 448 kts 253°
2026-05-08 03:23 40.18373 -118.36678 34191 ft 447 kts 253°
2026-05-08 03:23 40.16252 -118.44378 34166 ft 447 kts 253°
2026-05-08 03:24 40.14138 -118.52026 34144 ft 448 kts 253°
2026-05-08 03:24 40.11995 -118.59708 34150 ft 449 kts 252°
2026-05-08 03:25 40.09714 -118.67353 34171 ft 449 kts 250°
2026-05-08 03:25 40.07428 -118.74927 34190 ft 449 kts 250°
2026-05-08 03:26 40.05126 -118.82550 34206 ft 448 kts 250°
2026-05-08 03:26 40.02815 -118.90190 34214 ft 448 kts 251°
2026-05-08 03:27 40.00510 -118.97802 34214 ft 449 kts 250°
2026-05-08 03:27 39.98181 -119.05469 34212 ft 450 kts 250°
2026-05-08 03:28 39.95879 -119.13029 34224 ft 449 kts 250°
2026-05-08 03:28 39.93535 -119.20697 34234 ft 449 kts 250°
2026-05-08 03:29 39.91204 -119.28301 34242 ft 449 kts 250°
2026-05-08 03:29 39.88873 -119.35889 34240 ft 448 kts 250°
2026-05-08 03:30 39.85422 -119.47079 34241 ft 448 kts 250°
2026-05-08 03:31 39.80732 -119.62222 34258 ft 449 kts 250°
2026-05-08 03:32 39.77206 -119.73543 34247 ft 449 kts 249°
2026-05-08 03:32 39.75025 -119.80524 34236 ft 449 kts 249°
2026-05-08 03:33 39.72671 -119.88042 34241 ft 449 kts 249°
2026-05-08 03:33 39.70298 -119.95599 34253 ft 448 kts 249°
2026-05-08 03:34 39.67925 -120.03136 34257 ft 448 kts 249°
2026-05-08 03:34 39.65567 -120.10598 34260 ft 448 kts 249°
2026-05-08 03:35 39.63581 -120.16866 34264 ft 448 kts 249°
2026-05-08 03:36 39.58530 -120.32759 34282 ft 448 kts 249°
2026-05-08 03:36 39.56143 -120.40237 34282 ft 447 kts 248°
2026-05-08 03:37 39.53769 -120.47653 34287 ft 447 kts 248°
2026-05-08 03:37 39.51362 -120.55149 34281 ft 446 kts 248°
2026-05-08 03:38 39.48989 -120.62521 34273 ft 447 kts 248°
2026-05-08 03:38 39.46579 -120.69986 34263 ft 447 kts 248°
2026-05-08 03:39 39.44218 -120.77284 34246 ft 447 kts 248°
2026-05-08 03:39 39.41806 -120.84712 34225 ft 446 kts 248°
2026-05-08 03:40 39.39372 -120.92184 34197 ft 446 kts 248°
2026-05-08 03:40 39.36939 -120.99636 34170 ft 445 kts 248°
2026-05-08 03:41 39.34356 -121.06886 34152 ft 445 kts 243°
2026-05-08 03:41 39.31178 -121.13778 34138 ft 446 kts 237°
2026-05-08 03:42 39.27486 -121.20293 34108 ft 447 kts 234°
2026-05-08 03:42 39.23723 -121.26763 34082 ft 448 kts 234°
2026-05-08 03:43 39.19961 -121.33224 34058 ft 448 kts 234°
2026-05-08 03:43 39.16201 -121.39670 34044 ft 449 kts 234°
2026-05-08 03:44 39.12401 -121.46171 34035 ft 449 kts 234°
2026-05-08 03:44 39.08630 -121.52610 34028 ft 449 kts 234°
2026-05-08 03:45 39.04830 -121.59085 34024 ft 448 kts 234°
2026-05-08 03:45 39.01023 -121.65559 34022 ft 448 kts 234°
2026-05-08 03:46 38.97216 -121.72020 34018 ft 449 kts 234°
2026-05-08 03:46 38.93396 -121.78492 34013 ft 450 kts 234°
2026-05-08 03:47 38.89572 -121.84957 34014 ft 451 kts 234°
2026-05-08 03:47 38.85835 -121.91264 34015 ft 452 kts 234°
2026-05-08 03:48 38.82000 -121.97720 34017 ft 451 kts 234°
2026-05-08 03:48 38.78169 -122.04153 34024 ft 451 kts 234°
2026-05-08 03:49 38.74352 -122.10554 34036 ft 451 kts 234°
2026-05-08 03:49 38.70654 -122.16742 34057 ft 451 kts 234°
2026-05-08 03:50 38.66821 -122.23141 34066 ft 451 kts 234°
2026-05-08 03:50 38.62985 -122.29533 33947 ft 448 kts 234°
2026-05-08 03:50 38.61070 -122.32717 33125 ft 450 kts 234°
2026-05-08 03:51 38.59140 -122.35925 31738 ft 459 kts 233°
2026-05-08 03:51 38.57210 -122.39134 30559 ft 465 kts 233°
2026-05-08 03:51 38.55154 -122.42358 29864 ft 454 kts 229°
2026-05-08 03:51 38.52971 -122.45240 29088 ft 446 kts 224°
2026-05-08 03:52 38.50652 -122.47819 28255 ft 439 kts 220°
2026-05-08 03:52 38.48312 -122.50247 27537 ft 429 kts 220°
2026-05-08 03:52 38.45996 -122.52621 26850 ft 420 kts 220°
2026-05-08 03:52 38.43722 -122.54954 26021 ft 414 kts 220°
2026-05-08 03:53 38.41464 -122.57272 25287 ft 406 kts 220°
2026-05-08 03:53 38.39281 -122.59515 24538 ft 400 kts 220°
2026-05-08 03:53 38.37106 -122.61754 23761 ft 395 kts 220°
2026-05-08 03:53 38.34992 -122.63926 23062 ft 389 kts 220°
2026-05-08 03:54 38.32870 -122.66104 22478 ft 388 kts 220°
2026-05-08 03:54 38.30783 -122.68246 21918 ft 388 kts 220°
2026-05-08 03:54 38.28666 -122.70419 21358 ft 387 kts 219°
2026-05-08 03:54 38.26546 -122.72593 20801 ft 387 kts 219°
2026-05-08 03:55 38.24426 -122.74703 20248 ft 386 kts 215°
2026-05-08 03:55 38.21905 -122.76038 19670 ft 387 kts 191°
2026-05-08 03:55 38.19192 -122.75970 19195 ft 386 kts 169°
2026-05-08 03:55 38.16582 -122.75172 18804 ft 381 kts 167°
2026-05-08 03:56 38.14006 -122.74380 18361 ft 378 kts 167°
2026-05-08 03:56 38.11433 -122.73606 17902 ft 375 kts 168°
2026-05-08 03:56 38.08862 -122.72845 17446 ft 372 kts 168°
2026-05-08 03:56 38.06369 -122.72113 16995 ft 369 kts 168°
2026-05-08 03:57 38.03841 -122.71376 16550 ft 366 kts 168°
2026-05-08 03:57 38.01367 -122.70655 16080 ft 364 kts 168°
2026-05-08 03:57 37.98911 -122.69943 15643 ft 361 kts 168°
2026-05-08 03:57 37.96429 -122.69224 15197 ft 359 kts 168°
2026-05-08 03:58 37.93966 -122.68513 14739 ft 356 kts 168°
2026-05-08 03:58 37.91590 -122.67785 14307 ft 354 kts 164°
2026-05-08 03:58 37.89315 -122.66524 13870 ft 353 kts 150°
2026-05-08 03:58 37.87322 -122.64700 13489 ft 350 kts 141°
2026-05-08 03:59 37.85467 -122.62714 13183 ft 343 kts 140°
2026-05-08 03:59 37.83649 -122.60735 12887 ft 337 kts 140°
2026-05-08 03:59 37.81884 -122.58831 12593 ft 330 kts 141°
2026-05-08 03:59 37.80147 -122.56977 12322 ft 323 kts 141°
2026-05-08 04:00 37.78441 -122.55166 12070 ft 316 kts 141°
2026-05-08 04:00 37.76756 -122.53381 11710 ft 313 kts 141°
2026-05-08 04:00 37.75087 -122.51616 11342 ft 311 kts 141°
2026-05-08 04:00 37.73431 -122.49864 11046 ft 305 kts 141°
2026-05-08 04:01 37.71829 -122.48165 10986 ft 303 kts 141°
2026-05-08 04:01 37.70200 -122.46433 10983 ft 304 kts 141°
2026-05-08 04:01 37.68586 -122.44714 10982 ft 303 kts 140°
2026-05-08 04:01 37.66945 -122.42967 10735 ft 299 kts 141°
2026-05-08 04:02 37.65349 -122.41270 10317 ft 300 kts 141°
2026-05-08 04:02 37.63745 -122.39566 9976 ft 296 kts 141°
2026-05-08 04:02 37.62194 -122.37921 9799 ft 287 kts 141°
2026-05-08 04:02 37.60641 -122.36394 9559 ft 281 kts 147°
2026-05-08 04:03 37.58955 -122.35171 9310 ft 274 kts 155°
2026-05-08 04:03 37.55653 -122.33439 8838 ft 264 kts 156°
2026-05-08 04:03 37.54423 -122.32692 8654 ft 264 kts 155°
2026-05-08 04:04 37.52782 -122.31664 8407 ft 262 kts 155°
2026-05-08 04:04 37.51189 -122.30540 8144 ft 259 kts 142°
2026-05-08 04:04 37.50028 -122.28822 7896 ft 254 kts 123°
2026-05-08 04:04 37.49122 -122.26943 7645 ft 249 kts 121°
2026-05-08 04:05 37.48266 -122.25055 7348 ft 246 kts 120°
2026-05-08 04:05 37.47424 -122.23176 7025 ft 245 kts 120°
2026-05-08 04:05 37.46595 -122.21326 6709 ft 243 kts 120°
2026-05-08 04:05 37.45754 -122.19455 6384 ft 241 kts 120°
2026-05-08 04:06 37.44916 -122.17602 6069 ft 240 kts 120°
2026-05-08 04:06 37.44097 -122.15797 5764 ft 238 kts 120°
2026-05-08 04:06 37.43270 -122.13981 5431 ft 237 kts 120°
2026-05-08 04:06 37.42469 -122.12183 5095 ft 236 kts 114°
2026-05-08 04:07 37.42149 -122.10181 4720 ft 235 kts 82°
2026-05-08 04:07 37.42726 -122.08298 4366 ft 229 kts 48°
2026-05-08 04:07 37.43979 -122.07153 4017 ft 224 kts 15°
2026-05-08 04:07 37.45516 -122.07081 3666 ft 219 kts 341°
2026-05-08 04:08 37.46868 -122.07945 3351 ft 216 kts 326°
2026-05-08 04:08 37.48088 -122.09024 3181 ft 207 kts 323°
2026-05-08 04:08 37.49211 -122.10073 3049 ft 193 kts 323°
2026-05-08 04:08 37.50235 -122.11077 2975 ft 175 kts 320°
2026-05-08 04:09 37.51098 -122.12139 2979 ft 178 kts 311°
2026-05-08 04:09 37.51850 -122.13401 2987 ft 179 kts 304°
2026-05-08 04:09 37.52526 -122.14757 2983 ft 179 kts 301°
2026-05-08 04:09 37.53146 -122.16109 2982 ft 179 kts 300°
2026-05-08 04:10 37.53742 -122.17481 2982 ft 179 kts 299°
2026-05-08 04:10 37.54322 -122.18858 2938 ft 173 kts 298°
2026-05-08 04:10 37.54873 -122.20183 2736 ft 164 kts 298°
2026-05-08 04:10 37.55381 -122.21411 2534 ft 145 kts 299°
2026-05-08 04:11 37.55833 -122.22504 2320 ft 137 kts 299°
2026-05-08 04:11 37.56278 -122.23573 2146 ft 137 kts 299°
2026-05-08 04:11 37.56718 -122.24632 1972 ft 136 kts 299°
2026-05-08 04:11 37.57160 -122.25693 1794 ft 135 kts 299°
2026-05-08 04:12 37.57598 -122.26744 1618 ft 134 kts 299°
2026-05-08 04:12 37.58038 -122.27796 1435 ft 134 kts 299°
2026-05-08 04:12 37.58471 -122.28828 1261 ft 134 kts 298°
2026-05-08 04:12 37.58899 -122.29864 1071 ft 133 kts 298°
2026-05-08 04:13 37.59331 -122.30899 868 ft 132 kts 298°
2026-05-08 04:13 37.59758 -122.31927 695 ft 132 kts 297°
2026-05-08 04:13 37.60190 -122.32942 514 ft 132 kts 298°
2026-05-08 04:13 37.60616 -122.33954 365 ft 132 kts 297°
2026-05-08 04:14 37.61042 -122.34978 199 ft 131 kts 297°
2026-05-08 04:14 37.61467 -122.35985 35 ft 130 kts 297°
2026-05-08 04:14 37.61848 -122.36894 16 ft 97 kts 298°
2026-05-08 04:14 37.62085 -122.37460 22 ft 49 kts 298°
2026-05-08 04:15 37.62203 -122.37753 26 ft 30 kts 291°
2026-05-08 04:15 37.62230 -122.37949 28 ft 15 kts 270°
2026-05-08 04:15 37.62228 -122.38082 29 ft 14 kts 271°
2026-05-08 04:15 37.62228 -122.38208 30 ft 13 kts 263°
2026-05-08 04:16 37.62178 -122.38294 31 ft 12 kts 211°
2026-05-08 04:16 37.62098 -122.38330 32 ft 11 kts 198°
2026-05-08 04:16 37.62027 -122.38339 32 ft 11 kts 137°
2026-05-08 04:16 37.61975 -122.38223 32 ft 16 kts 118°
2026-05-08 04:17 37.61917 -122.38087 31 ft 18 kts 118°
2026-05-08 04:17 37.61825 -122.37970 30 ft 19 kts 154°
2026-05-08 04:17 37.61710 -122.37946 30 ft 16 kts 186°
2026-05-08 04:17 37.61611 -122.37998 31 ft 12 kts 207°
2026-05-08 04:18 37.61545 -122.38067 32 ft 12 kts 248°
2026-05-08 04:18 37.61521 -122.38161 32 ft 4 kts 253°
2026-05-08 04:18 37.61517 -122.38180 32 ft 1 kts 253°
2026-05-08 04:18 37.61517 -122.38181 32 ft 0 kts 253°